User: anonymous   Login
Location: Gradaro
(45.0833°N, 10.8833°E)
Time: 17:39:16
(UTC+00:00)
Language:

BREEZE-M DEB (TANK) - Orbit

View from above orbital plane
View from above orbital plane
View from above satellite
View from above satellite

Ground track
Ground track

The orbit data is extracted from the following two-line orbital elements,

1 29271U 06032C   21127.74155430  .00000505  00000-0  15027-3 0  9992
2 29271  49.5265 312.6510 5300168 110.3313 312.5960  5.11320588268596
Epoch (UTC): 07 May 2021 17:47:50
Eccentricity: 0.5300168
inclination: 49.5265°
perigee height: 311 km
apogee height: 15397 km
right ascension of ascending node: 312.6510°
argument of perigee: 110.3313°
revolutions per day: 5.11320588
mean anomaly at epoch: 312.5960°
orbit number at epoch: 26859

The dashed part of the orbit path shows where the satellite is in the earth's shadow,  

DLR